Bingham Lake, MN

11:56 PM CDT on August 23, 2016 (GMT -0500)
Windom Municipal

Weather History for KMWM - April, 2014

Change the Weather History Date:

Thursday, April 3, 2014

  Actual Average Record
Temperature  
Mean Temperature 30 °F -  
Max Temperature 33 °F 48 °F 78 °F (1981)
Min Temperature 28 °F 27 °F 3 °F (1998)
Degree Days  
Heating Degree Days 34    
Moisture  
Dew Point 32 °F    
Average Humidity 96    
Maximum Humidity 100    
Minimum Humidity 87    
Precipitation  
Precipitation 0.00 in - - ()
Sea Level Pressure  
Sea Level Pressure 29.84 in    
Wind  
Wind Speed 13 mph (NE)    
Max Wind Speed 22 mph    
Max Gust Speed 26 mph    
Visibility 4 miles    
Events Snow    
Averages and records for this station are not official NWS values.
T = Trace of Precipitation, MM = Missing Value Source: NWS Daily Summary

Daily Weather History Graph

Daily Weather History Graph

Search for Another Location

Airport or City:

Trip Planner

Search our weather history database for the weather conditions in past years. The results will help you decide how hot, cold, wet, or windy it might be!

Date:

Astronomy

Apr. 03, 2014 Rise Set
Actual Time 6:58 AM CDT 7:49 PM CDT
Civil Twilight 6:29 AM CDT 8:19 PM CDT
Nautical Twilight 5:54 AM CDT 8:54 PM CDT
Astronomical Twilight 5:18 AM CDT 9:30 PM CDT
Moon 9:21 AM CDT (4/3) No Moon Set
Length of Visible Light 13h 50m
Length of Day
12h 51m
Waxing Crescent, 17% of the Moon is Illuminated
Apr 3
Waxing Crescent
Apr 7
First Quarter
Apr 15
Full
Apr 22
Last Quarter
Apr 29
New

Hourly Weather History & Observations

Time (CDT) Temp. Windchill Dew Point Humidity Pressure Visibility Wind Dir Wind Speed Gust Speed Precip Events Conditions
12:12 AM 33.8 °F 24.8 °F 32.0 °F 93% 29.98 in 10.0 mi NE 12.7 mph - N/A   Overcast
12:33 AM 33.8 °F 24.8 °F 32.0 °F 93% 29.97 in 10.0 mi NE 12.7 mph - N/A   Overcast
12:53 AM 33.8 °F 23.2 °F 30.2 °F 87% 29.93 in 10.0 mi NE 17.3 mph - N/A   Overcast
1:12 AM 33.8 °F 23.9 °F 30.2 °F 87% 29.94 in 10.0 mi ENE 15.0 mph 21.9 mph N/A   Overcast
1:33 AM 33.8 °F 24.3 °F 30.2 °F 87% 29.93 in 10.0 mi ENE 13.8 mph - N/A   Overcast
1:52 AM 33.8 °F 23.9 °F 30.2 °F 87% 29.91 in 10.0 mi ENE 15.0 mph - N/A   Overcast
2:12 AM 33.8 °F 24.3 °F 30.2 °F 87% 29.90 in 10.0 mi ENE 13.8 mph - N/A   Overcast
2:33 AM 33.8 °F 24.3 °F 30.2 °F 87% 29.91 in 10.0 mi NE 13.8 mph - N/A   Overcast
2:52 AM 33.8 °F 24.8 °F 30.2 °F 87% 29.90 in 10.0 mi ENE 12.7 mph - N/A   Overcast
3:13 AM 33.8 °F 25.3 °F 32.0 °F 93% 29.90 in 10.0 mi ENE 11.5 mph - N/A   Overcast
3:33 AM 33.8 °F 25.3 °F 32.0 °F 93% 29.92 in 10.0 mi ENE 11.5 mph - N/A   Overcast
3:52 AM 33.8 °F 26.4 °F 32.0 °F 93% 29.91 in 7.0 mi ENE 9.2 mph - N/A   Overcast
4:13 AM 33.8 °F 25.8 °F 32.0 °F 93% 29.90 in 3.0 mi ENE 10.4 mph - N/A   Overcast
4:33 AM 33.8 °F 25.3 °F 33.8 °F 100% 29.90 in 2.5 mi NE 11.5 mph - N/A   Overcast
4:52 AM 33.8 °F 25.3 °F 33.8 °F 100% 29.90 in 2.5 mi ENE 11.5 mph - N/A   Overcast
5:13 AM 33.8 °F 23.9 °F 33.8 °F 100% 29.87 in 2.5 mi ENE 15.0 mph 20.7 mph N/A   Overcast
5:33 AM 33.8 °F 23.2 °F 33.8 °F 100% 29.87 in 3.0 mi ENE 17.3 mph - N/A   Overcast
5:52 AM 33.8 °F 22.5 °F 33.8 °F 100% 29.85 in 3.0 mi ENE 19.6 mph 26.5 mph N/A   Overcast
6:13 AM 33.8 °F 23.9 °F 33.8 °F 100% 29.89 in 2.5 mi East 15.0 mph - N/A   Overcast
6:33 AM 33.8 °F 23.5 °F 33.8 °F 100% 29.89 in 3.0 mi East 16.1 mph 20.7 mph N/A   Overcast
6:52 AM 33.8 °F 24.8 °F 33.8 °F 100% 29.90 in 3.0 mi ENE 12.7 mph - N/A   Overcast
7:13 AM 33.8 °F 24.3 °F 33.8 °F 100% 29.88 in 2.5 mi ENE 13.8 mph - N/A   Overcast
7:33 AM 33.8 °F 24.8 °F 32.0 °F 93% 29.87 in 3.0 mi ENE 12.7 mph 18.4 mph N/A   Overcast
7:52 AM 33.8 °F 24.3 °F 32.0 °F 93% 29.87 in 4.0 mi ENE 13.8 mph 20.7 mph N/A   Overcast
8:13 AM 33.8 °F 23.5 °F 33.8 °F 100% 29.86 in 2.0 mi ENE 16.1 mph 20.7 mph N/A   Overcast
8:33 AM 33.8 °F 22.8 °F 32.0 °F 93% 29.83 in 1.8 mi ENE 18.4 mph 26.5 mph N/A   Overcast
8:52 AM 33.8 °F 23.5 °F 32.0 °F 93% 29.85 in 1.8 mi ENE 16.1 mph - N/A   Overcast
9:13 AM 33.8 °F 24.8 °F 32.0 °F 93% 29.85 in 2.5 mi ENE 12.7 mph 19.6 mph N/A   Overcast
9:33 AM 33.8 °F 23.9 °F 32.0 °F 93% 29.85 in 4.0 mi ENE 15.0 mph - N/A   Overcast
9:52 AM 33.8 °F 25.3 °F 32.0 °F 93% 29.85 in 4.0 mi ENE 11.5 mph - N/A   Overcast
10:13 AM 33.8 °F 24.8 °F 32.0 °F 93% 29.85 in 4.0 mi ENE 12.7 mph - N/A   Overcast
10:32 AM 33.8 °F 25.3 °F 32.0 °F 93% 29.86 in 3.0 mi ENE 11.5 mph 17.3 mph N/A   Overcast
10:52 AM 33.8 °F 26.4 °F 33.8 °F 100% 29.85 in 2.0 mi ENE 9.2 mph - N/A   Overcast
11:12 AM 33.8 °F 25.3 °F 33.8 °F 100% 29.85 in 1.8 mi ENE 11.5 mph - N/A   Overcast
11:32 AM 33.8 °F 25.8 °F 33.8 °F 100% 29.85 in 2.0 mi ENE 10.4 mph - N/A   Overcast
11:53 AM 33.8 °F 26.4 °F 33.8 °F 100% 29.85 in 2.5 mi ENE 9.2 mph - N/A   Overcast
12:12 PM 33.8 °F 26.4 °F 33.8 °F 100% 29.84 in 3.0 mi ENE 9.2 mph - N/A   Overcast
12:32 PM 33.8 °F 25.3 °F 33.8 °F 100% 29.84 in 4.0 mi ENE 11.5 mph - N/A   Overcast
12:53 PM 33.8 °F 26.4 °F 33.8 °F 100% 29.84 in 3.0 mi NE 9.2 mph - N/A   Overcast
1:12 PM 33.8 °F 25.8 °F 33.8 °F 100% 29.82 in 3.0 mi NE 10.4 mph - N/A   Overcast
1:32 PM 33.8 °F 25.3 °F 33.8 °F 100% 29.82 in 3.0 mi NE 11.5 mph - N/A   Overcast
1:53 PM 33.8 °F 25.3 °F 33.8 °F 100% 29.81 in 3.0 mi NNE 11.5 mph - N/A   Overcast
2:12 PM 33.8 °F 27.0 °F 32.0 °F 93% 29.82 in 2.0 mi NE 8.1 mph - N/A   Overcast
2:32 PM 33.8 °F 27.0 °F 32.0 °F 93% 29.81 in 2.0 mi NNE 8.1 mph - N/A   Overcast
2:53 PM 33.8 °F 25.8 °F 32.0 °F 93% 29.79 in 4.0 mi NNE 10.4 mph - N/A   Overcast
3:12 PM 33.8 °F 25.8 °F 32.0 °F 93% 29.79 in 4.0 mi NNE 10.4 mph - N/A   Overcast
3:32 PM 33.8 °F 26.4 °F 32.0 °F 93% 29.79 in 3.0 mi NE 9.2 mph - N/A   Overcast
3:53 PM 32.0 °F 22.5 °F 32.0 °F 100% 29.77 in 4.0 mi NNE 12.7 mph - N/A   Overcast
4:12 PM 32.0 °F 24.2 °F 32.0 °F 100% 29.79 in 2.5 mi NE 9.2 mph 12.7 mph N/A   Overcast
4:32 PM 32.0 °F 23.6 °F 32.0 °F 100% 29.79 in 4.0 mi NNE 10.4 mph - N/A   Overcast
4:53 PM 32.0 °F 23.6 °F 32.0 °F 100% 29.78 in 1.2 mi NNE 10.4 mph - N/A Snow Light Snow
5:12 PM 32.0 °F 23.6 °F 32.0 °F 100% 29.79 in 0.5 mi NNE 10.4 mph - N/A Snow Snow
5:32 PM 32.0 °F 24.8 °F 32.0 °F 100% 29.81 in 1.0 mi NNE 8.1 mph - N/A Snow Light Snow
5:53 PM 32.0 °F 23.6 °F 30.2 °F 93% 29.79 in 1.0 mi NNE 10.4 mph - N/A   Overcast
6:12 PM 32.0 °F 22.5 °F 30.2 °F 93% 29.78 in 0.2 mi NNE 12.7 mph - N/A Snow Snow
6:32 PM 30.2 °F 20.2 °F 30.2 °F 100% 29.77 in 1.0 mi NNE 12.7 mph - N/A Snow Light Snow
6:53 PM 30.2 °F 20.2 °F 30.2 °F 100% 29.78 in 4.0 mi NNE 12.7 mph - N/A Snow Light Snow
7:12 PM 30.2 °F 19.8 °F 30.2 °F 100% 29.78 in 1.8 mi North 13.8 mph - N/A Snow Light Snow
7:32 PM 30.2 °F 19.3 °F 30.2 °F 100% 29.79 in 0.8 mi North 15.0 mph - N/A Snow Light Snow
7:52 PM 30.2 °F 19.3 °F 30.2 °F 100% 29.79 in 1.0 mi North 15.0 mph - N/A Snow Light Snow
8:12 PM 30.2 °F 20.8 °F 28.4 °F 93% 29.79 in 1.2 mi NNE 11.5 mph - N/A Snow Light Snow
8:33 PM 30.2 °F 18.5 °F 28.4 °F 93% 29.79 in 0.8 mi North 17.3 mph - N/A Snow Snow
8:52 PM 28.4 °F 17.0 °F 28.4 °F 100% 29.79 in 1.0 mi North 15.0 mph - N/A Snow Light Snow
9:12 PM 30.2 °F 19.8 °F 28.4 °F 93% 29.81 in 0.8 mi North 13.8 mph 17.3 mph N/A Snow Snow
9:33 PM 28.4 °F 18.0 °F 28.4 °F 100% 29.80 in 1.0 mi North 12.7 mph - N/A Snow Snow
10:52 PM 30.2 °F 18.1 °F 28.4 °F 93% 29.76 in 1.5 mi North 18.4 mph 23.0 mph N/A Snow Light Snow
11:12 PM 28.4 °F 14.7 °F 28.4 °F 100% 29.76 in 1.0 mi North 21.9 mph - N/A Snow Snow
11:33 PM 28.4 °F 15.4 °F 26.6 °F 93% 29.75 in - North 19.6 mph - N/A   Overcast
11:52 PM 28.4 °F 14.7 °F 26.6 °F 93% 29.74 in - North 21.9 mph - N/A   Overcast